Year,Month,Day,Hour,Minute,Value (Times are PST for temperature in C)
2009,03,23,00,00,4.70
2009,03,23,00,01,4.70
2009,03,23,00,02,4.70
2009,03,23,00,03,4.70
2009,03,23,00,04,4.70
2009,03,23,00,05,4.70
2009,03,23,00,06,4.60
2009,03,23,00,07,4.60
2009,03,23,00,08,4.60
2009,03,23,00,09,4.70
2009,03,23,00,10,4.70
2009,03,23,00,11,4.60
2009,03,23,00,12,4.60
2009,03,23,00,13,4.60
2009,03,23,00,14,4.60
2009,03,23,00,15,4.60
2009,03,23,00,16,4.60
2009,03,23,00,17,4.60
2009,03,23,00,18,4.60
2009,03,23,00,19,4.60
2009,03,23,00,20,4.60
2009,03,23,00,21,4.60
2009,03,23,00,22,4.70
2009,03,23,00,23,4.70
2009,03,23,00,24,4.70
2009,03,23,00,25,4.70
2009,03,23,00,26,4.70
2009,03,23,00,27,4.70
2009,03,23,00,28,4.70
2009,03,23,00,29,4.70
2009,03,23,00,30,4.60
2009,03,23,00,31,4.60
2009,03,23,00,32,4.60
2009,03,23,00,33,4.60
2009,03,23,00,34,4.60
2009,03,23,00,35,4.60
2009,03,23,00,36,4.60
2009,03,23,00,37,4.60
2009,03,23,00,38,4.60
2009,03,23,00,39,4.60
2009,03,23,00,40,4.60
2009,03,23,00,41,4.60
2009,03,23,00,42,4.60
2009,03,23,00,43,4.60
2009,03,23,00,44,4.60
2009,03,23,00,45,4.60
2009,03,23,00,46,4.60
2009,03,23,00,47,4.60
2009,03,23,00,48,4.60
2009,03,23,00,49,4.60
2009,03,23,00,50,4.60
2009,03,23,00,51,4.60
2009,03,23,00,52,4.60
2009,03,23,00,53,4.60
2009,03,23,00,54,4.60
2009,03,23,00,55,4.60
2009,03,23,00,56,4.60
2009,03,23,00,57,4.60
2009,03,23,00,58,4.60
2009,03,23,00,59,4.60
2009,03,23,01,00,4.60
2009,03,23,01,01,4.60
2009,03,23,01,02,4.60
2009,03,23,01,03,4.60
2009,03,23,01,04,4.60
2009,03,23,01,05,4.60
2009,03,23,01,06,4.60
2009,03,23,01,07,4.60
2009,03,23,01,08,4.60
2009,03,23,01,09,4.60
2009,03,23,01,10,4.60
2009,03,23,01,11,4.60
2009,03,23,01,12,4.60
2009,03,23,01,13,4.60
2009,03,23,01,14,4.60
2009,03,23,01,15,4.60
2009,03,23,01,16,4.60
2009,03,23,01,17,4.60
2009,03,23,01,18,4.60
2009,03,23,01,19,4.60
2009,03,23,01,20,4.60
2009,03,23,01,21,4.60
2009,03,23,01,22,4.60
2009,03,23,01,23,4.60
2009,03,23,01,24,4.60
2009,03,23,01,25,4.60
2009,03,23,01,26,4.60
2009,03,23,01,27,4.60
2009,03,23,01,28,4.60
2009,03,23,01,29,4.60
2009,03,23,01,30,4.60
2009,03,23,01,31,4.60
2009,03,23,01,32,4.60
2009,03,23,01,33,4.60
2009,03,23,01,34,4.60
2009,03,23,01,35,4.60
2009,03,23,01,36,4.60
2009,03,23,01,37,4.60
2009,03,23,01,38,4.60
2009,03,23,01,39,4.60
2009,03,23,01,40,4.60
2009,03,23,01,41,4.60
2009,03,23,01,42,4.60
2009,03,23,01,43,4.60
2009,03,23,01,44,4.60
2009,03,23,01,45,4.60
2009,03,23,01,46,4.60
2009,03,23,01,47,4.60
2009,03,23,01,48,4.60
2009,03,23,01,49,4.60
2009,03,23,01,50,4.60
2009,03,23,01,51,4.60
2009,03,23,01,52,4.60
2009,03,23,01,53,4.60
2009,03,23,01,54,4.60
2009,03,23,01,55,4.60
2009,03,23,01,56,4.60
2009,03,23,01,57,4.60
2009,03,23,01,58,4.60
2009,03,23,01,59,4.70
2009,03,23,02,00,4.70
2009,03,23,02,01,4.70
2009,03,23,02,02,4.70
2009,03,23,02,03,4.70
2009,03,23,02,04,4.70
2009,03,23,02,05,4.70
2009,03,23,02,06,4.70
2009,03,23,02,07,4.70
2009,03,23,02,08,4.60
2009,03,23,02,09,4.60
2009,03,23,02,10,4.60
2009,03,23,02,11,4.60
2009,03,23,02,12,4.60
2009,03,23,02,13,4.60
2009,03,23,02,14,4.60
2009,03,23,02,15,4.60
2009,03,23,02,16,4.60
2009,03,23,02,17,4.60
2009,03,23,02,18,4.60
2009,03,23,02,19,4.60
2009,03,23,02,20,4.60
2009,03,23,02,21,4.60
2009,03,23,02,22,4.60
2009,03,23,02,23,4.60
2009,03,23,02,24,4.60
2009,03,23,02,25,4.60
2009,03,23,02,26,4.60
2009,03,23,02,27,4.70
2009,03,23,02,28,4.70
2009,03,23,02,29,4.70
2009,03,23,02,30,4.70
2009,03,23,02,31,4.70
2009,03,23,02,32,4.70
2009,03,23,02,33,4.70
2009,03,23,02,34,4.70
2009,03,23,02,35,4.80
2009,03,23,02,36,4.80
2009,03,23,02,37,4.80
2009,03,23,02,38,4.80
2009,03,23,02,39,4.80
2009,03,23,02,40,4.80
2009,03,23,02,41,4.80
2009,03,23,02,42,4.80
2009,03,23,02,43,4.80
2009,03,23,02,44,4.80
2009,03,23,02,45,4.80
2009,03,23,02,46,4.80
2009,03,23,02,47,4.80
2009,03,23,02,48,4.80
2009,03,23,02,49,4.80
2009,03,23,02,50,4.80
2009,03,23,02,51,4.80
2009,03,23,02,52,4.80
2009,03,23,02,53,4.80
2009,03,23,02,54,4.80
2009,03,23,02,55,4.80
2009,03,23,02,56,4.80
2009,03,23,02,57,4.80
2009,03,23,02,58,4.80
2009,03,23,02,59,4.80
2009,03,23,03,00,4.80
2009,03,23,03,01,4.80
2009,03,23,03,02,4.80
2009,03,23,03,03,4.70
2009,03,23,03,04,4.80
2009,03,23,03,05,4.80
2009,03,23,03,06,4.80
2009,03,23,03,07,4.80
2009,03,23,03,08,4.80
2009,03,23,03,09,4.80
2009,03,23,03,10,4.80
2009,03,23,03,11,4.80
2009,03,23,03,12,4.80
2009,03,23,03,13,4.80
2009,03,23,03,14,4.80
2009,03,23,03,15,4.80
2009,03,23,03,16,4.80
2009,03,23,03,17,4.90
2009,03,23,03,18,4.90
2009,03,23,03,19,4.90
2009,03,23,03,20,4.80
2009,03,23,03,21,4.80
2009,03,23,03,22,4.80
2009,03,23,03,23,4.80
2009,03,23,03,24,4.80
2009,03,23,03,25,4.80
2009,03,23,03,26,4.80
2009,03,23,03,27,4.80
2009,03,23,03,28,4.80
2009,03,23,03,29,4.70
2009,03,23,03,30,4.70
2009,03,23,03,31,4.70
2009,03,23,03,32,4.70
2009,03,23,03,33,4.70
2009,03,23,03,34,4.70
2009,03,23,03,35,4.70
2009,03,23,03,36,4.70
2009,03,23,03,37,4.70
2009,03,23,03,38,4.70
2009,03,23,03,39,4.70
2009,03,23,03,40,4.70
2009,03,23,03,41,4.70
2009,03,23,03,42,4.70
2009,03,23,03,43,4.70
2009,03,23,03,44,4.70
2009,03,23,03,45,4.60
2009,03,23,03,46,4.60
2009,03,23,03,47,4.60
2009,03,23,03,48,4.60
2009,03,23,03,49,4.60
2009,03,23,03,50,4.60
2009,03,23,03,51,4.60
2009,03,23,03,52,4.60
2009,03,23,03,53,4.60
2009,03,23,03,54,4.60
2009,03,23,03,55,4.60
2009,03,23,03,56,4.60
2009,03,23,03,57,4.60
2009,03,23,03,58,4.60
2009,03,23,03,59,4.50
2009,03,23,04,00,4.50
2009,03,23,04,01,4.50
2009,03,23,04,02,4.50
2009,03,23,04,03,4.50
2009,03,23,04,04,4.50
2009,03,23,04,05,4.50
2009,03,23,04,06,4.50
2009,03,23,04,07,4.50
2009,03,23,04,08,4.60
2009,03,23,04,09,4.60
2009,03,23,04,10,4.60
2009,03,23,04,11,4.60
2009,03,23,04,12,4.60
2009,03,23,04,13,4.60
2009,03,23,04,14,4.50
2009,03,23,04,15,4.50
2009,03,23,04,16,4.50
2009,03,23,04,17,4.50
2009,03,23,04,18,4.50
2009,03,23,04,19,4.50
2009,03,23,04,20,4.40
2009,03,23,04,21,4.40
2009,03,23,04,22,4.40
2009,03,23,04,23,4.40
2009,03,23,04,24,4.40
2009,03,23,04,25,4.40
2009,03,23,04,26,4.30
2009,03,23,04,27,4.40
2009,03,23,04,28,4.40
2009,03,23,04,29,4.40
2009,03,23,04,30,4.50
2009,03,23,04,31,4.50
2009,03,23,04,32,4.50
2009,03,23,04,33,4.50
2009,03,23,04,34,4.40
2009,03,23,04,35,4.40
2009,03,23,04,36,4.40
2009,03,23,04,37,4.40
2009,03,23,04,38,4.40
2009,03,23,04,39,4.40
2009,03,23,04,40,4.30
2009,03,23,04,41,4.30
2009,03,23,04,42,4.30
2009,03,23,04,43,4.30
2009,03,23,04,44,4.30
2009,03,23,04,45,4.30
2009,03,23,04,46,4.40
2009,03,23,04,47,4.40
2009,03,23,04,48,4.40
2009,03,23,04,49,4.50
2009,03,23,04,50,4.50
2009,03,23,04,51,4.50
2009,03,23,04,52,4.60
2009,03,23,04,53,4.60
2009,03,23,04,54,4.60
2009,03,23,04,55,4.60
2009,03,23,04,56,4.60
2009,03,23,04,57,4.70
2009,03,23,04,58,4.70
2009,03,23,04,59,4.70
2009,03,23,05,00,4.70
2009,03,23,05,01,4.70
2009,03,23,05,02,4.70
2009,03,23,05,03,4.60
2009,03,23,05,05,4.60
2009,03,23,05,06,4.60
2009,03,23,05,07,4.60
2009,03,23,05,08,4.60
2009,03,23,05,09,4.60
2009,03,23,05,10,4.60
2009,03,23,05,11,4.60
2009,03,23,05,12,4.60
2009,03,23,05,13,4.60
2009,03,23,05,14,4.60
2009,03,23,05,15,4.60
2009,03,23,05,16,4.60
2009,03,23,05,17,4.60
2009,03,23,05,18,4.60
2009,03,23,05,19,4.60
2009,03,23,05,20,4.60
2009,03,23,05,21,4.50
2009,03,23,05,22,4.50
2009,03,23,05,23,4.50
2009,03,23,05,24,4.50
2009,03,23,05,25,4.40
2009,03,23,05,26,4.40
2009,03,23,05,27,4.40
2009,03,23,05,28,4.40
2009,03,23,05,29,4.40
2009,03,23,05,30,4.40
2009,03,23,05,31,4.40
2009,03,23,05,32,4.40
2009,03,23,05,33,4.30
2009,03,23,05,34,4.30
2009,03,23,05,35,4.30
2009,03,23,05,36,4.30
2009,03,23,05,37,4.30
2009,03,23,05,38,4.20
2009,03,23,05,39,4.20
2009,03,23,05,40,4.20
2009,03,23,05,41,4.20
2009,03,23,05,42,4.20
2009,03,23,05,43,4.20
2009,03,23,05,44,4.10
2009,03,23,05,45,4.10
2009,03,23,05,46,4.10
2009,03,23,05,47,4.10
2009,03,23,05,48,4.00
2009,03,23,05,49,4.00
2009,03,23,05,50,4.00
2009,03,23,05,51,4.00
2009,03,23,05,52,4.00
2009,03,23,05,53,4.00
2009,03,23,05,54,4.00
2009,03,23,05,55,4.00
2009,03,23,05,56,4.00
2009,03,23,05,57,4.00
2009,03,23,05,58,4.00
2009,03,23,05,59,3.90
2009,03,23,06,00,3.90
2009,03,23,06,01,3.80
2009,03,23,06,02,3.80
2009,03,23,06,03,3.70
2009,03,23,06,04,3.70
2009,03,23,06,05,3.60
2009,03,23,06,06,3.50
2009,03,23,06,07,3.50
2009,03,23,06,08,3.40
2009,03,23,06,09,3.40
2009,03,23,06,10,3.30
2009,03,23,06,11,3.30
2009,03,23,06,12,3.20
2009,03,23,06,13,3.10
2009,03,23,06,14,3.10
2009,03,23,06,15,3.10
2009,03,23,06,16,3.10
2009,03,23,06,17,3.10
2009,03,23,06,18,2.90
2009,03,23,06,19,2.90
2009,03,23,06,20,2.90
2009,03,23,06,21,2.90
2009,03,23,06,22,2.90
2009,03,23,06,23,2.90
2009,03,23,06,24,2.90
2009,03,23,06,25,2.90
2009,03,23,06,26,2.90
2009,03,23,06,27,2.90
2009,03,23,06,28,2.90
2009,03,23,06,29,2.90
2009,03,23,06,30,2.90
2009,03,23,06,31,2.90
2009,03,23,06,32,2.90
2009,03,23,06,33,2.90
2009,03,23,06,34,2.90
2009,03,23,06,35,2.90
2009,03,23,06,36,2.90
2009,03,23,06,37,2.90
2009,03,23,06,38,2.90
2009,03,23,06,39,2.90
2009,03,23,06,40,2.90
2009,03,23,06,41,2.80
2009,03,23,06,42,2.80
2009,03,23,06,43,2.80
2009,03,23,06,44,2.80
2009,03,23,06,45,2.80
2009,03,23,06,46,2.80
2009,03,23,06,47,2.70
2009,03,23,06,48,2.70
2009,03,23,06,49,2.70
2009,03,23,06,50,2.70
2009,03,23,06,51,2.70
2009,03,23,06,52,2.70
2009,03,23,06,53,2.70
2009,03,23,06,54,2.70
2009,03,23,06,55,2.70
2009,03,23,06,56,2.70
2009,03,23,06,57,2.70
2009,03,23,06,58,2.60
2009,03,23,06,59,2.60
2009,03,23,07,00,2.60
2009,03,23,07,01,2.60
2009,03,23,07,02,2.50
2009,03,23,07,03,2.50
2009,03,23,07,04,2.50
2009,03,23,07,05,2.50
2009,03,23,07,06,2.50
2009,03,23,07,07,2.40
2009,03,23,07,08,2.40
2009,03,23,07,09,2.40
2009,03,23,07,10,2.40
2009,03,23,07,11,2.30
2009,03,23,07,12,2.30
2009,03,23,07,13,2.30
2009,03,23,07,14,2.30
2009,03,23,07,15,2.30
2009,03,23,07,16,2.30
2009,03,23,07,17,2.20
2009,03,23,07,18,2.20
2009,03,23,07,19,2.20
2009,03,23,07,20,2.20
2009,03,23,07,21,2.20
2009,03,23,07,22,2.20
2009,03,23,07,23,2.20
2009,03,23,07,24,2.20
2009,03,23,07,25,2.20
2009,03,23,07,26,2.20
2009,03,23,07,27,2.20
2009,03,23,07,28,2.20
2009,03,23,07,29,2.10
2009,03,23,07,30,2.10
2009,03,23,07,31,2.10
2009,03,23,07,32,2.10
2009,03,23,07,33,2.10
2009,03,23,07,34,2.10
2009,03,23,07,35,2.10
2009,03,23,07,36,2.10
2009,03,23,07,37,2.10
2009,03,23,07,38,2.10
2009,03,23,07,39,2.10
2009,03,23,07,40,2.10
2009,03,23,07,41,2.10
2009,03,23,07,42,2.10
2009,03,23,07,43,2.20
2009,03,23,07,44,2.20
2009,03,23,07,45,2.20
2009,03,23,07,46,2.20
2009,03,23,07,47,2.30
2009,03,23,07,48,2.30
2009,03,23,07,49,2.40
2009,03,23,07,50,2.40
2009,03,23,07,51,2.50
2009,03,23,07,52,2.50
2009,03,23,07,53,2.60
2009,03,23,07,54,2.60
2009,03,23,07,55,2.60
2009,03,23,07,56,2.70
2009,03,23,07,57,2.60
2009,03,23,07,58,2.50
2009,03,23,07,59,2.40
2009,03,23,08,00,2.30
2009,03,23,08,01,2.20
2009,03,23,08,02,2.20
2009,03,23,08,03,2.20
2009,03,23,08,04,2.20
2009,03,23,08,05,2.10
2009,03,23,08,06,2.10
2009,03,23,08,07,2.10
2009,03,23,08,08,2.20
2009,03,23,08,09,2.20
2009,03,23,08,10,2.20
2009,03,23,08,11,2.20
2009,03,23,08,12,2.20
2009,03,23,08,13,2.20
2009,03,23,08,14,2.20
2009,03,23,08,15,2.20
2009,03,23,08,16,2.30
2009,03,23,08,17,2.30
2009,03,23,08,18,2.40
2009,03,23,08,19,2.40
2009,03,23,08,20,2.40
2009,03,23,08,21,2.50
2009,03,23,08,22,2.50
2009,03,23,08,23,2.50
2009,03,23,08,24,2.50
2009,03,23,08,25,2.60
2009,03,23,08,26,2.60
2009,03,23,08,27,2.70
2009,03,23,08,28,2.70
2009,03,23,08,29,2.70
2009,03,23,08,30,2.70
2009,03,23,08,31,2.70
2009,03,23,08,32,2.80
2009,03,23,08,33,2.80
2009,03,23,08,34,2.80
2009,03,23,08,35,2.80
2009,03,23,08,36,2.80
2009,03,23,08,37,2.80
2009,03,23,08,38,2.90
2009,03,23,08,39,2.90
2009,03,23,08,40,2.90
2009,03,23,08,41,2.90
2009,03,23,08,42,3.00
2009,03,23,08,43,3.10
2009,03,23,08,44,3.10
2009,03,23,08,45,3.10
2009,03,23,08,46,3.20
2009,03,23,08,47,3.30
2009,03,23,08,48,3.30
2009,03,23,08,49,3.30
2009,03,23,08,50,3.40
2009,03,23,08,51,3.50
2009,03,23,08,52,3.50
2009,03,23,08,53,3.60
2009,03,23,08,54,3.70
2009,03,23,08,55,3.80
2009,03,23,08,56,3.80
2009,03,23,08,57,3.90
2009,03,23,08,58,3.90
2009,03,23,08,59,4.00
2009,03,23,09,00,4.00
2009,03,23,09,01,4.10
2009,03,23,09,02,4.10
2009,03,23,09,03,4.20
2009,03,23,09,04,4.20
2009,03,23,09,05,4.20
2009,03,23,09,06,4.30
2009,03,23,09,07,4.40
2009,03,23,09,08,4.40
2009,03,23,09,09,4.40
2009,03,23,09,10,4.50
2009,03,23,09,11,4.50
2009,03,23,09,12,4.50
2009,03,23,09,13,4.60
2009,03,23,09,14,4.60
2009,03,23,09,15,4.70
2009,03,23,09,16,4.70
2009,03,23,09,17,4.80
2009,03,23,09,18,4.90
2009,03,23,09,19,4.90
2009,03,23,09,20,4.90
2009,03,23,09,21,5.00
2009,03,23,09,22,5.10
2009,03,23,09,23,5.10
2009,03,23,09,24,5.10
2009,03,23,09,25,5.10
2009,03,23,09,26,5.10
2009,03,23,09,27,5.10
2009,03,23,09,28,5.10
2009,03,23,09,29,5.10
2009,03,23,09,30,5.10
2009,03,23,09,31,5.10
2009,03,23,09,32,5.10
2009,03,23,09,33,5.10
2009,03,23,09,34,5.10
2009,03,23,09,35,5.10
2009,03,23,09,36,5.10
2009,03,23,09,37,5.10
2009,03,23,09,38,5.10
2009,03,23,09,39,5.10
2009,03,23,09,40,5.10
2009,03,23,09,41,5.10
2009,03,23,09,42,5.10
2009,03,23,09,43,5.10
2009,03,23,09,44,5.10
2009,03,23,09,45,5.10
2009,03,23,09,46,5.10
2009,03,23,09,47,5.10
2009,03,23,09,48,5.10
2009,03,23,09,49,5.00
2009,03,23,09,50,5.00
2009,03,23,09,51,5.00
2009,03,23,09,52,4.90
2009,03,23,09,53,4.90
2009,03,23,09,54,4.90
2009,03,23,09,55,4.90
2009,03,23,09,56,4.90
2009,03,23,09,57,4.90
2009,03,23,09,58,4.90
2009,03,23,09,59,4.90
2009,03,23,10,00,4.90
2009,03,23,10,01,4.90
2009,03,23,10,02,4.90
2009,03,23,10,03,4.90
2009,03,23,10,04,4.90
2009,03,23,10,05,4.90
2009,03,23,10,06,4.90
2009,03,23,10,07,4.90
2009,03,23,10,08,4.90
2009,03,23,10,09,4.90
2009,03,23,10,10,4.90
2009,03,23,10,11,4.90
2009,03,23,10,12,4.80
2009,03,23,10,13,4.80
2009,03,23,10,14,4.80
2009,03,23,10,15,4.80
2009,03,23,10,16,4.90
2009,03,23,10,17,4.90
2009,03,23,10,18,4.90
2009,03,23,10,19,4.90
2009,03,23,10,20,4.90
2009,03,23,10,21,4.80
2009,03,23,10,22,4.80
2009,03,23,10,23,4.80
2009,03,23,10,24,4.80
2009,03,23,10,25,4.80
2009,03,23,10,26,4.80
2009,03,23,10,27,4.80
2009,03,23,10,28,4.80
2009,03,23,10,29,4.80
2009,03,23,10,30,4.90
2009,03,23,10,31,4.90
2009,03,23,10,32,4.90
2009,03,23,10,33,4.90
2009,03,23,10,34,4.80
2009,03,23,10,35,4.80
2009,03,23,10,36,4.80
2009,03,23,10,37,4.80
2009,03,23,10,38,4.80
2009,03,23,10,39,4.80
2009,03,23,10,40,4.80
2009,03,23,10,41,4.80
2009,03,23,10,42,4.80
2009,03,23,10,43,4.80
2009,03,23,10,44,4.80
2009,03,23,10,45,4.80
